FW6908 Weather Reports


time (UTC)temp
C
wind
direction
speed
KPH
gust
KPH
rain 1hr
cm
rain 24hr
cm
rain mn
cm
humidity
%
barometer
mb
20260507203051 18 137 1.6 4.8 0.00 0.00 0.00 51 1020.3
20260507202551 18 136 0.0 4.8 0.00 0.00 0.00 50 1020.3
20260507202051 18 142 1.6 4.8 0.00 0.00 0.00 50 1020.4
20260507201551 18 134 1.6 6.4 0.00 0.00 0.00 50 1020.4
20260507201051 18 136 1.6 11.3 0.00 0.00 0.00 50 1020.3
20260507200551 18 127 3.2 11.3 0.00 0.00 0.00 50 1020.3
20260507200050 18 134 3.2 11.3 0.00 0.00 0.00 49 1020.2
20260507195549 18 136 6.4 11.3 0.00 0.00 0.00 49 1020.1
20260507195052 18 126 4.8 11.3 0.00 0.00 0.00 49 1020.1
20260507194548 19 136 4.8 11.3 0.00 0.00 0.00 49 1020.2
20260507194046 19 121 3.2 11.3 0.00 0.00 0.00 49 1020.0
20260507193546 19 94 3.2 11.3 0.00 0.00 0.00 49 1020.0
20260507193047 19 94 4.8 9.7 0.00 0.00 0.00 49 1019.8
20260507192547 19 68 0.0 0.0 0.00 0.00 0.00 49 1020.0
20260507192046 19 65 0.0 3.2 0.00 0.00 0.00 49 1020.0
20260507191546 19 47 0.0 4.8 0.00 0.00 0.00 50 1019.9
20260507191047 19 46 1.6 4.8 0.00 0.00 0.00 50 1019.7
20260507190545 19 40 3.2 6.4 0.00 0.00 0.00 49 1019.7
20260507190044 20 34 3.2 6.4 0.00 0.00 0.00 50 1019.9
20260507185644 20 19 1.6 6.4 0.00 0.00 0.00 50 1019.9
20260507185044 20 314 1.6 6.4 0.00 0.00 0.00 49 1019.9
20260507184543 20 301 1.6 6.4 0.00 0.00 0.00 49 1019.9
20260507184043 20 321 3.2 6.4 0.00 0.00 0.00 50 1019.8
20260507183543 20 318 3.2 6.4 0.00 0.00 0.00 50 1019.8
20260507183051 20 277 3.2 6.4 0.00 0.00 0.00 50 1019.8
20260507182543 20 299 1.6 11.3 0.00 0.00 0.00 51 1019.7
20260507182041 20 298 4.8 12.9 0.00 0.00 0.00 51 1019.8
20260507181542 20 268 6.4 12.9 0.00 0.00 0.00 51 1019.9
20260507181042 20 319 3.2 9.7 0.00 0.00 0.00 50 1019.8
20260507180545 20 275 4.8 9.7 0.00 0.00 0.00 49 1019.7
20260507180050 20 286 3.2 11.3 0.00 0.00 0.00 49 1019.8
20260507175541 20 267 4.8 14.5 0.00 0.00 0.00 48 1019.7
20260507175041 20 272 11.3 14.5 0.00 0.00 0.00 47 1019.7
20260507174541 20 258 6.4 14.5 0.00 0.00 0.00 48 1019.5
20260507174040 20 294 6.4 14.5 0.00 0.00 0.00 47 1019.6
20260507173543 20 269 8.0 14.5 0.00 0.00 0.00 47 1019.7
20260507173055 20 273 8.0 17.7 0.00 0.00 0.00 47 1019.8
20260507172539 20 268 12.9 17.7 0.00 0.00 0.00 46 1019.8
20260507172040 21 269 8.0 12.9 0.00 0.00 0.00 46 1019.7
20260507171539 21 271 8.0 20.9 0.00 0.00 0.00 43 1019.7
20260507171040 21 250 11.3 20.9 0.00 0.00 0.00 38 1019.6
20260507170539 21 258 9.7 14.5 0.00 0.00 0.00 38 1019.4
20260507170049 21 277 4.8 9.7 0.00 0.00 0.00 39 1019.3
20260507165539 21 264 1.6 8.0 0.00 0.00 0.00 39 1019.1
20260507165039 21 256 4.8 8.0 0.00 0.00 0.00 39 1019.1
20260507164538 21 338 3.2 9.7 0.00 0.00 0.00 40 1019.0
20260507164038 21 257 3.2 9.7 0.00 0.00 0.00 39 1018.9
20260507163539 21 250 3.2 8.0 0.00 0.00 0.00 38 1019.1
20260507163038 21 220 4.8 12.9 0.00 0.00 0.00 39 1019.0
20260507162539 22 226 8.0 19.3 0.00 0.00 0.00 38 1019.1
20260507162038 22 185 9.7 19.3 0.00 0.00 0.00 37 1019.1
20260507161540 22 217 11.3 19.3 0.00 0.00 0.00 37 1019.1
20260507161037 21 251 8.0 16.1 0.00 0.00 0.00 38 1019.2
20260507160538 22 263 8.0 16.1 0.00 0.00 0.00 38 1019.2
20260507160038 22 267 8.0 16.1 0.00 0.00 0.00 37 1019.3
20260507155537 21 269 9.7 14.5 0.00 0.00 0.00 41 1019.2
20260507155040 22 223 6.4 17.7 0.00 0.00 0.00 39 1019.3
20260507154537 22 244 11.3 19.3 0.00 0.00 0.00 37 1019.4
20260507154036 22 215 8.0 19.3 0.00 0.00 0.00 41 1019.4
20260507153536 22 246 4.8 17.7 0.00 0.00 0.00 38 1019.5
20260507153035 22 244 14.5 19.3 0.00 0.00 0.00 37 1019.6
20260507152535 22 237 8.0 19.3 0.00 0.00 0.00 39 1019.6
20260507152034 22 235 12.9 17.7 0.00 0.00 0.00 37 1019.7
20260507151535 22 201 12.9 17.7 0.00 0.00 0.00 37 1019.7
20260507151034 22 215 11.3 20.9 0.00 0.00 0.00 37 1019.6
20260507150534 22 251 14.5 20.9 0.00 0.00 0.00 37 1019.6
20260507150034 22 241 11.3 20.9 0.00 0.00 0.00 40 1019.6
20260507145532 22 271 11.3 20.9 0.00 0.00 0.00 41 1019.6
20260507145032 22 251 11.3 20.9 0.00 0.00 0.00 37 1019.5
20260507144532 22 249 16.1 20.9 0.00 0.00 0.00 35 1019.6
20260507144032 23 198 8.0 19.3 0.00 0.00 0.00 35 1019.5
20260507143531 23 214 11.3 19.3 0.00 0.00 0.00 36 1019.6
20260507143031 22 225 12.9 19.3 0.00 0.00 0.00 36 1019.6
20260507142531 23 234 9.7 25.7 0.00 0.00 0.00 36 1019.6
20260507142030 23 202 12.9 27.4 0.00 0.00 0.00 36 1019.5
20260507141531 23 240 17.7 32.2 0.00 0.00 0.00 33 1019.5
20260507141032 23 230 19.3 32.2 0.00 0.00 0.00 34 1019.4
20260507140529 23 206 12.9 25.7 0.00 0.00 0.00 35 1019.2
20260507140034 23 184 14.5 22.5 0.00 0.00 0.00 33 1019.2
20260507135528 23 158 16.1 20.9 0.00 0.00 0.00 34 1019.1
20260507135028 23 254 12.9 30.6 0.00 0.00 0.00 33 1019.2
20260507134527 23 229 14.5 29.0 0.00 0.00 0.00 34 1018.9
20260507134026 23 193 14.5 22.5 0.00 0.00 0.00 32 1019.0
20260507133525 23 259 11.3 22.5 0.00 0.00 0.00 39 1018.9
20260507133024 23 249 11.3 19.3 0.00 0.00 0.00 38 1018.8
20260507132522 23 219 12.9 24.1 0.00 0.00 0.00 41 1018.9
20260507132022 22 261 16.1 19.3 0.00 0.00 0.00 41 1018.9
20260507131521 23 262 12.9 19.3 0.00 0.00 0.00 44 1019.0
20260507131024 22 238 12.9 19.3 0.00 0.00 0.00 47 1019.0
20260507130520 22 234 11.3 24.1 0.00 0.00 0.00 48 1019.1
20260507130020 22 246 14.5 24.1 0.00 0.00 0.00 50 1019.1
20260507125520 21 288 14.5 25.7 0.00 0.00 0.00 51 1019.3
20260507125019 21 269 17.7 25.7 0.00 0.00 0.00 50 1019.3
20260507124519 22 261 16.1 22.5 0.00 0.00 0.00 49 1019.3
20260507124019 22 248 16.1 22.5 0.00 0.00 0.00 48 1019.4
20260507123519 22 219 11.3 22.5 0.00 0.00 0.00 48 1019.4
20260507123022 22 275 16.1 22.5 0.00 0.00 0.00 48 1019.4
20260507122521 22 211 11.3 22.5 0.00 0.00 0.00 50 1019.5
20260507122020 22 230 14.5 22.5 0.00 0.00 0.00 52 1019.5
20260507121517 22 277 14.5 25.7 0.00 0.00 0.00 50 1019.6
20260507121017 22 269 14.5 24.1 0.00 0.00 0.00 51 1019.6
20260507120517 22 262 14.5 20.9 0.00 0.00 0.00 51 1019.7
20260507120016 22 269 12.9 20.9 0.00 0.00 0.00 51 1019.6
20260507115519 22 240 14.5 20.9 0.00 0.00 0.00 52 1019.6
20260507115014 22 267 12.9 24.1 0.00 0.00 0.00 52 1019.5
20260507114514 22 209 12.9 25.7 0.00 0.00 0.00 53 1019.7
20260507114014 22 260 17.7 25.7 0.00 0.00 0.00 53 1019.7
20260507113514 23 263 16.1 25.7 0.00 0.00 0.00 51 1019.7
20260507113014 23 279 14.5 25.7 0.00 0.00 0.00 52 1019.7
20260507112513 22 252 14.5 29.0 0.00 0.00 0.00 52 1019.6
20260507112013 22 251 22.5 29.0 0.00 0.00 0.00 51 1019.9
20260507111516 23 253 17.7 25.7 0.00 0.00 0.00 52 1019.8
20260507111012 22 213 19.3 22.5 0.00 0.00 0.00 52 1019.8
20260507110510 23 230 17.7 25.7 0.00 0.00 0.00 52 1019.7
20260507110010 22 225 16.1 24.1 0.00 0.00 0.00 56 1019.5
20260507105510 23 199 12.9 24.1 0.00 0.00 0.00 54 1019.7
20260507105009 22 265 11.3 27.4 0.00 0.00 0.00 57 1019.7
20260507104508 22 228 19.3 27.4 0.00 0.00 0.00 54 1019.6
20260507104107 23 250 19.3 25.7 0.00 0.00 0.00 52 1019.6
20260507103506 23 220 16.1 22.5 0.00 0.00 0.00 47 1019.5
20260507103006 22 254 12.9 17.7 0.00 0.00 0.00 55 1019.2
20260507102506 23 272 12.9 19.3 0.00 0.00 0.00 53 1019.2
20260507102007 23 219 11.3 19.3 0.00 0.00 0.00 53 1019.2
20260507101507 23 217 11.3 20.9 0.00 0.00 0.00 51 1019.3
20260507101006 22 262 16.1 22.5 0.00 0.00 0.00 56 1019.3
20260507100506 22 275 12.9 22.5 0.00 0.00 0.00 55 1019.3
20260507100011 22 271 12.9 19.3 0.00 0.00 0.00 55 1019.3
20260507095508 23 219 12.9 17.7 0.00 0.00 0.00 51 1019.3
20260507095004 23 243 11.3 17.7 0.00 0.00 0.00 51 1019.3
20260507094502 23 212 11.3 17.7 0.00 0.00 0.00 49 1019.3
20260507094002 23 275 9.7 17.7 0.00 0.00 0.00 48 1019.3
20260507093502 23 215 14.5 19.3 0.00 0.00 0.00 46 1019.3
20260507093006 23 260 12.9 19.3 0.00 0.00 0.00 45 1019.2
20260507092502 23 267 8.0 16.1 0.00 0.00 0.00 45 1019.3
20260507092059 23 259 9.7 14.5 0.00 0.00 0.00 46 1019.2
20260507091558 22 261 8.0 14.5 0.00 0.00 0.00 47 1019.3
20260507091058 22 263 12.9 16.1 0.00 0.00 0.00 47 1019.4
20260507090557 22 265 11.3 16.1 0.00 0.00 0.00 47 1019.2
20260507090100 22 246 8.0 14.5 0.00 0.00 0.00 46 1019.2
20260507085555 22 260 6.4 12.9 0.00 0.00 0.00 47 1019.1
20260507085056 22 221 8.0 12.9 0.00 0.00 0.00 48 1019.1
20260507084604 22 260 8.0 14.5 0.00 0.00 0.00 47 1019.2
20260507084052 22 212 9.7 14.5 0.00 0.00 0.00 47 1019.4
20260507083552 22 238 8.0 12.9 0.00 0.00 0.00 48 1019.5
20260507083052 22 227 6.4 12.9 0.00 0.00 0.00 47 1019.4
20260507082550 22 215 6.4 12.9 0.00 0.00 0.00 46 1019.4
20260507082050 22 208 6.4 12.9 0.00 0.00 0.00 47 1019.4
20260507081550 21 269 4.8 12.9 0.00 0.00 0.00 48 1019.3
20260507081049 21 233 8.0 14.5 0.00 0.00 0.00 47 1019.3
20260507080551 21 256 6.4 11.3 0.00 0.00 0.00 49 1019.4
20260507080053 21 200 8.0 14.5 0.00 0.00 0.00 50 1019.3
20260507075547 21 246 6.4 16.1 0.00 0.00 0.00 51 1019.4
20260507075046 21 273 11.3 16.1 0.00 0.00 0.00 52 1019.3
20260507074545 21 266 8.0 16.1 0.00 0.00 0.00 52 1019.3
20260507074044 21 247 9.7 16.1 0.00 0.00 0.00 53 1019.3
20260507073543 21 250 9.7 14.5 0.00 0.00 0.00 54 1019.1
20260507073044 21 222 6.4 12.9 0.00 0.00 0.00 54 1019.1
20260507072543 21 231 3.2 12.9 0.00 0.00 0.00 53 1019.1
20260507072041 21 230 4.8 12.9 0.00 0.00 0.00 53 1019.2
20260507071540 20 247 8.0 12.9 0.00 0.00 0.00 53 1019.2
20260507071039 21 198 4.8 12.9 0.00 0.00 0.00 53 1019.2
20260507070539 20 182 4.8 12.9 0.00 0.00 0.00 54 1019.4
20260507070058 20 231 6.4 11.3 0.00 0.00 0.00 53 1019.4
20260507065537 20 238 6.4 14.5 0.00 0.00 0.00 53 1019.4
20260507065036 20 219 8.0 14.5 0.00 0.00 0.00 52 1019.4
20260507064536 20 197 8.0 16.1 0.00 0.00 0.00 53 1019.4
20260507064033 20 232 8.0 17.7 0.00 0.00 0.00 53 1019.4
20260507063531 20 261 8.0 12.9 0.00 0.00 0.00 53 1019.3
20260507063034 20 205 8.0 12.9 0.00 0.00 0.00 54 1019.2
20260507062529 20 248 6.4 12.9 0.00 0.00 0.00 53 1019.2
20260507062028 20 209 8.0 12.9 0.00 0.00 0.00 53 1019.2
20260507061528 20 213 4.8 9.7 0.00 0.00 0.00 52 1019.1
20260507061026 20 238 4.8 8.0 0.00 0.00 0.00 53 1019.1
20260507060525 20 233 3.2 6.4 0.00 0.00 0.00 53 1019.0
20260507060024 20 269 3.2 6.4 0.00 0.00 0.00 53 1018.8
20260507055523 20 283 1.6 6.4 0.00 0.00 0.00 53 1018.8
20260507055021 19 28 1.6 8.0 0.00 0.00 0.00 54 1018.7
20260507054519 18 11 3.2 9.7 0.00 0.00 0.00 57 1018.7
20260507054022 18 355 4.8 9.7 0.00 0.00 0.00 58 1018.6
20260507053516 18 355 4.8 8.0 0.00 0.00 0.00 58 1018.5
20260507053016 18 355 1.6 8.0 0.00 0.00 0.00 59 1018.5
20260507052514 18 360 1.6 8.0 0.00 0.00 0.00 60 1018.5
20260507052012 17 13 3.2 6.4 0.00 0.00 0.00 60 1018.4
20260507051511 17 11 3.2 8.0 0.00 0.00 0.00 60 1018.4
20260507051010 17 58 1.6 9.7 0.00 0.00 0.00 61 1018.4
20260507050508 16 30 1.6 9.7 0.00 0.00 0.00 62 1018.4
20260507050024 16 73 4.8 9.7 0.00 0.00 0.00 62 1018.4
20260507045507 16 56 4.8 9.7 0.00 0.00 0.00 64 1018.4
20260507045005 15 17 4.8 8.0 0.00 0.00 0.00 65 1018.5
20260507044503 15 15 3.2 6.4 0.00 0.00 0.00 67 1018.5
20260507044002 14 40 3.2 6.4 0.00 0.00 0.00 68 1018.5
20260507043500 14 24 3.2 8.0 0.00 0.00 0.00 68 1018.4
20260507043100 14 23 3.2 6.4 0.00 0.00 0.00 68 1018.4
20260507042603 14 355 0.0 6.4 0.00 0.00 0.00 67 1018.4
20260507042057 14 57 1.6 9.7 0.00 0.00 0.00 68 1018.4
20260507041603 13 53 4.8 9.7 0.00 0.00 0.00 70 1018.5
20260507041101 13 49 4.8 9.7 0.00 0.00 0.00 71 1018.5
20260507040552 13 29 4.8 8.0 0.00 0.00 0.00 71 1018.5
20260507040052 13 37 4.8 8.0 0.00 0.00 0.00 70 1018.6
20260507035551 13 41 1.6 6.4 0.00 0.00 0.00 70 1018.5
20260507035048 13 38 0.0 8.0 0.00 0.00 0.00 69 1018.5
20260507034546 13 73 1.6 8.0 0.00 0.00 0.00 70 1018.5
20260507034045 13 49 4.8 8.0 0.00 0.00 0.00 71 1018.5
20260507033544 12 50 4.8 9.7 0.00 0.00 0.00 72 1018.4
20260507033044 12 59 4.8 9.7 0.00 0.00 0.00 73 1018.4
20260507032543 12 27 4.8 8.0 0.00 0.00 0.00 72 1018.4
20260507032043 13 36 3.2 6.4 0.00 0.00 0.00 70 1018.3
20260507031543 13 71 3.2 6.4 0.00 0.00 0.00 71 1018.3
20260507031041 13 62 3.2 6.4 0.00 0.00 0.00 72 1018.3
20260507030542 13 68 1.6 4.8 0.00 0.00 0.00 71 1018.3
20260507030041 13 63 1.6 4.8 0.00 0.00 0.00 71 1018.3
20260507025540 13 59 3.2 4.8 0.00 0.00 0.00 72 1018.2
20260507025041 12 44 1.6 8.0 0.00 0.00 0.00 72 1018.2
20260507024540 12 37 3.2 8.0 0.00 0.00 0.00 73 1018.3
20260507024040 12 40 4.8 8.0 0.00 0.00 0.00 72 1018.3
20260507023539 12 31 3.2 6.4 0.00 0.00 0.00 72 1018.3
20260507023039 12 57 3.2 6.4 0.00 0.00 0.00 71 1018.3
20260507022539 13 44 3.2 6.4 0.00 0.00 0.00 71 1018.2
20260507022039 13 53 3.2 6.4 0.00 0.00 0.00 70 1018.3
20260507021539 13 73 1.6 4.8 0.00 0.00 0.00 69 1018.3
20260507021038 13 77 1.6 4.8 0.00 0.00 0.00 69 1018.2
20260507020538 13 94 0.0 6.4 0.00 0.00 0.00 68 1018.2
20260507020045 13 94 1.6 9.7 0.00 0.00 0.00 68 1018.1
20260507015537 13 102 3.2 9.7 0.00 0.00 0.00 68 1018.1
20260507015037 13 83 6.4 9.7 0.00 0.00 0.00 69 1018.1
20260507014542 13 86 4.8 9.7 0.00 0.00 0.00 69 1018.1
20260507014037 12 73 6.4 11.3 0.00 0.00 0.00 70 1018.2
20260507013536 12 63 8.0 11.3 0.00 0.00 0.00 70 1018.0
20260507013043 12 40 6.4 9.7 0.00 0.00 0.00 71 1017.9
20260507012535 12 17 4.8 12.9 0.00 0.00 0.00 71 1017.9
20260507012034 12 34 4.8 14.5 0.00 0.00 0.00 71 1017.8
20260507011541 12 38 8.0 14.5 0.00 0.00 0.00 71 1017.5
20260507011033 12 46 8.0 12.9 0.00 0.00 0.00 71 1017.4
20260507010532 12 24 6.4 9.7 0.00 0.00 0.00 70 1017.3
20260507010041 12 32 8.0 12.9 0.00 0.00 0.00 70 1017.4
20260507005533 12 38 6.4 12.9 0.00 0.00 0.00 70 1017.3
20260507005031 12 29 4.8 9.7 0.00 0.00 0.00 70 1017.5
20260507004530 12 46 6.4 9.7 0.00 0.00 0.00 70 1017.4
20260507004030 12 44 6.4 9.7 0.00 0.00 0.00 71 1017.4
20260507003530 12 30 6.4 9.7 0.00 0.00 0.00 70 1017.3
20260507003029 13 28 6.4 9.7 0.00 0.00 0.00 69 1017.3
20260507002528 13 49 4.8 9.7 0.00 0.00 0.00 69 1017.3
20260507002027 13 42 4.8 11.3 0.00 0.00 0.00 69 1017.3
20260507001537 13 49 6.4 14.5 0.00 0.00 0.00 70 1017.4
20260507001026 13 46 9.7 14.5 0.00 0.00 0.00 70 1017.5
20260507000525 13 34 8.0 14.5 0.00 0.00 0.00 70 1017.5
20260507000031 13 34 6.4 9.7 0.00 0.00 0.00 69 1017.6
20260506235523 13 44 4.8 11.3 0.00 0.00 0.00 69 1017.6
20260506235023 13 40 8.0 9.7 0.00 0.00 0.00 69 1017.7
20260506234522 13 40 6.4 11.3 0.00 0.00 0.00 69 1017.8
20260506234022 13 36 8.0 11.3 0.00 0.00 0.00 69 1017.9
20260506233520 13 38 4.8 9.7 0.00 0.00 0.00 69 1018.0
20260506233019 13 32 6.4 9.7 0.00 0.00 0.00 68 1018.0
20260506232517 13 22 4.8 6.4 0.00 0.00 0.00 67 1018.1
20260506232017 13 39 3.2 9.7 0.00 0.00 0.00 66 1018.1
20260506231519 13 54 4.8 9.7 0.00 0.00 0.00 67 1018.0
20260506231016 13 41 6.4 9.7 0.00 0.00 0.00 67 1018.1
20260506230516 13 25 4.8 8.0 0.00 0.00 0.00 67 1018.2
20260506230016 13 35 4.8 8.0 0.00 0.00 0.00 68 1018.2
20260506225516 13 30 4.8 8.0 0.00 0.00 0.00 68 1018.2
20260506225013 13 30 4.8 8.0 0.00 0.00 0.00 67 1018.2
20260506224514 14 38 4.8 6.4 0.00 0.00 0.00 65 1018.3
20260506224009 15 74 3.2 6.4 0.00 0.00 0.00 63 1018.2
20260506223509 15 76 3.2 6.4 0.00 0.00 0.00 62 1018.3
20260506223009 16 76 1.6 6.4 0.00 0.00 0.00 61 1018.3
20260506222509 15 78 3.2 6.4 0.00 0.00 0.00 62 1018.3
20260506222009 15 70 3.2 9.7 0.00 0.00 0.00 62 1018.3
20260506221508 15 53 6.4 9.7 0.00 0.00 0.00 63 1018.4
20260506221008 15 38 4.8 8.0 0.00 0.00 0.00 64 1018.4
20260506220507 15 46 4.8 8.0 0.00 0.00 0.00 65 1018.4
20260506220007 15 32 4.8 8.0 0.00 0.00 0.00 65 1018.3
20260506215507 15 53 4.8 8.0 0.00 0.00 0.00 65 1018.3
20260506215006 15 38 4.8 11.3 0.00 0.00 0.00 65 1018.4
20260506214505 15 46 6.4 8.0 0.00 0.00 0.00 65 1018.3
20260506214005 15 43 4.8 8.0 0.00 0.00 0.00 65 1018.3
20260506213507 15 35 4.8 9.7 0.00 0.00 0.00 66 1018.3
20260506213003 15 30 4.8 8.0 0.00 0.00 0.00 65 1018.4
20260506212502 15 17 4.8 6.4 0.00 0.00 0.00 64 1018.5
20260506212101 16 28 1.6 4.8 0.00 0.00 0.00 63 1018.5
20260506211559 16 59 0.0 0.0 0.00 0.00 0.00 62 1018.5
20260506211104 16 56 0.0 3.2 0.00 0.00 0.00 62 1018.5
20260506210559 16 54 0.0 3.2 0.00 0.00 0.00 62 1018.5
20260506210057 16 48 0.0 3.2 0.00 0.00 0.00 62 1018.5
20260506205557 16 51 0.0 3.2 0.00 0.00 0.00 61 1018.6
20260506205057 17 53 0.0 3.2 0.00 0.00 0.00 59 1018.6
20260506204557 17 46 0.0 0.0 0.00 0.00 0.00 59 1018.6
20260506204056 16 34 0.0 0.0 0.00 0.00 0.00 59 1018.7
20260506203556 16 33 0.0 0.0 0.00 0.00 0.00 60 1018.7